Theta_e
350 347 348 345 327 328 317 316 322 320 321 327 331 330 327 328 324 318 342 346 347 348 355 359 363 362 362 361 364 362 363 363 362 363 364 364 364 364 362 362 362 362 362 362 361 361 361 361 358
345 347 348 339 321 315 315 321 318 321 324 331 333 330 327 324 333 336 339 347 348 349 354 355 363 362 362 361 362 363 363 362 362 363 362 365 362 365 362 362 362 363 362 359 357 358 359 361 359
343 346 337 328 321 316 314 321 321 324 328 333 330 332 329 328 335 337 346 348 347 352 353 354 359 358 360 360 361 361 361 363 362 362 362 365 362 362 362 362 362 361 361 361 360 360 358 360 359
344 347 341 323 317 325 321 322 323 328 331 332 329 325 332 337 337 343 349 350 350 351 350 357 360 360 358 360 361 360 362 362 364 364 364 363 365 362 361 360 359 360 361 361 361 360 358 359 356
346 342 325 321 321 325 324 325 329 328 330 330 329 325 328 336 342 347 347 350 349 350 349 358 361 361 361 358 359 359 362 362 364 364 363 363 363 359 360 361 362 361 362 361 361 359 358 357 354
338 339 323 318 316 327 325 328 331 330 332 330 328 327 329 338 344 345 347 346 350 348 351 355 360 362 361 360 360 361 362 363 362 363 362 364 365 362 362 363 365 362 361 361 359 357 357 357 354
331 332 322 320 319 324 324 330 330 329 328 328 332 325 331 337 343 343 346 347 347 348 350 353 355 359 361 362 362 361 362 363 363 362 362 364 363 362 365 366 364 361 361 360 359 358 357 356 353
337 334 323 322 318 320 331 332 335 332 327 336 335 325 326 339 341 345 346 347 348 351 351 353 354 354 355 356 360 360 360 362 362 362 362 366 365 362 362 365 364 360 359 359 359 359 358 357 355
341 328 322 322 321 323 334 331 336 338 332 332 334 332 336 341 341 342 343 344 346 349 350 351 352 353 359 358 357 360 360 362 360 360 362 365 357 356 358 361 363 360 359 359 360 360 359 358 358
332 327 325 331 330 327 333 332 334 332 331 330 331 336 337 339 336 336 340 340 343 345 346 351 351 352 352 350 359 358 356 354 350 346 343 353 358 362 356 360 360 359 359 359 360 362 361 359 354
331 325 331 332 334 334 333 332 334 330 327 330 331 332 336 335 335 336 336 337 342 345 352 350 349 354 349 353 356 352 352 349 345 340 341 349 354 353 353 357 355 357 360 350 351 357 357 358 357
327 331 333 333 334 333 331 335 332 332 332 335 336 336 335 333 333 335 336 340 344 344 347 348 352 353 357 353 356 353 352 345 340 343 339 346 353 355 349 352 356 361 345 339 345 350 358 352 351
328 330 334 334 334 333 333 331 332 330 336 337 338 336 333 333 334 336 339 342 344 343 346 350 354 360 362 351 354 352 353 351 352 347 343 353 352 360 356 360 350 348 351 346 351 351 352 355 353
331 332 332 332 331 331 329 329 331 332 335 335 335 334 333 332 334 337 337 339 342 345 346 352 354 359 360 359 359 351 357 357 353 352 348 347 354 364 359 358 359 346 348 351 351 360 350 356 349
334 327 328 328 329 328 330 321 326 331 333 332 332 332 332 333 335 336 339 339 343 345 351 350 353 355 358 362 353 355 355 355 356 357 366 363 363 368 358 356 358 355 363 364 362 360 354 351 350
327 326 318 325 328 328 327 317 328 331 331 330 330 330 331 333 334 338 339 340 345 346 353 353 349 349 353 351 362 362 355 350 358 357 361 363 364 367 366 361 352 357 357 364 361 356 352 350 352
324 315 316 319 327 326 324 320 326 333 330 328 329 329 329 332 336 339 338 342 346 349 352 350 352 351 356 360 350 356 360 358 360 357 358 365 363 365 365 358 363 365 357 358 357 349 354 343 347
313 317 317 317 323 325 321 321 323 329 331 327 328 328 331 333 334 338 339 345 346 349 352 351 350 354 361 360 362 364 353 362 353 357 361 367 364 366 361 365 360 359 357 346 355 349 356 360 348
317 317 315 319 324 320 316 316 322 328 329 329 328 327 331 333 336 338 342 346 344 348 352 356 351 363 358 357 347 354 357 357 351 362 364 366 364 367 368 364 354 339 348 360 356 356 359 358 345
318 317 315 321 323 319 316 316 322 325 327 330 328 330 331 332 334 337 340 343 343 349 352 356 358 362 360 361 355 352 359 353 358 365 366 355 364 368 364 360 355 350 350 364 361 356 358 358 353
317 316 317 316 319 319 316 312 315 320 326 329 332 332 332 334 332 336 339 341 346 350 351 355 357 362 363 362 359 349 353 360 356 358 359 361 364 366 370 364 359 353 354 358 365 364 360 356 351
312 323 319 318 313 308 317 303 312 316 320 325 329 331 332 331 336 337 337 338 343 350 352 356 359 362 360 363 362 352 352 353 359 358 359 357 365 361 365 368 357 340 341 354 364 363 360 361 355
312 321 321 317 314 312 312 307 311 315 314 321 327 330 333 336 334 337 336 340 340 345 351 356 359 362 364 367 358 359 364 360 361 360 357 370 368 361 361 366 367 351 351 357 365 365 363 361 350
319 320 316 314 311 305 311 309 308 312 315 320 327 331 332 332 336 338 339 341 346 346 350 353 357 359 361 364 361 364 354 347 357 357 357 356 359 362 366 365 368 368 358 361 365 368 365 362 351
315 313 307 302 304 304 313 310 311 319 323 322 324 329 333 332 335 335 338 342 344 344 349 353 358 356 359 361 360 359 354 349 358 359 359 351 357 358 361 366 366 364 363 365 369 368 369 366 363
311 311 306 298 300 303 312 306 312 321 326 327 328 329 334 334 337 337 336 341 341 344 346 351 356 357 358 359 362 362 360 358 358 363 355 352 351 361 365 363 365 365 366 365 368 366 363 365 365
310 307 314 310 307 305 305 310 318 323 323 324 326 330 331 333 335 337 343 342 342 344 345 355 356 357 357 357 361 362 363 362 364 362 348 354 361 359 363 365 364 365 363 368 368 364 365 360 366
311 314 306 310 300 297 303 306 308 318 320 326 326 329 332 333 334 336 339 342 339 341 344 355 357 357 357 356 358 358 360 362 366 366 361 359 357 350 347 360 363 362 362 368 367 363 361 364 364
306 306 308 309 308 300 299 307 320 320 318 327 328 330 331 331 333 338 338 341 343 346 349 352 354 356 355 356 356 358 356 358 362 362 364 365 351 346 358 364 364 363 365 366 365 365 362 358 363
310 307 307 302 303 307 306 306 320 323 327 329 330 332 335 336 338 341 342 340 343 349 349 342 351 351 354 356 355 358 357 359 357 360 361 361 363 360 361 365 367 366 366 363 366 363 360 359 358
Wind_Speed
10 12 10 4 2 6 6 16 17 16 15 19 23 20 15 5 10 15 18 19 22 19 15 14 13 13 13 12 13 13 13 14 13 14 14 14 15 15 16 16 17 17 17 17 16 17 16 15 13
12 14 2 3 2 5 10 16 16 16 14 22 23 21 22 24 24 25 18 22 23 18 16 14 11 12 13 12 11 12 13 13 13 13 14 15 14 15 15 16 16 16 16 16 15 16 15 14 11
15 18 4 1 3 2 11 14 16 18 12 21 19 17 15 22 19 18 19 13 21 18 17 14 13 12 12 12 11 12 12 12 13 12 12 15 14 16 16 15 17 15 14 13 14 16 14 13 10
6 2 3 3 10 5 13 18 18 18 16 20 22 18 19 21 23 24 25 10 18 19 16 14 13 12 12 11 12 11 12 12 11 13 13 15 14 16 15 14 14 13 13 15 14 15 13 12 7
1 3 3 4 3 5 17 17 14 16 15 12 24 22 19 22 22 21 22 19 17 19 16 14 12 12 12 11 10 11 12 11 11 13 14 15 16 16 13 13 13 14 14 13 14 14 12 10 5
2 3 3 8 4 8 17 14 15 20 21 13 22 21 22 18 23 16 18 13 19 20 16 13 13 13 13 12 12 11 13 12 11 13 13 15 14 16 12 14 14 15 14 14 13 12 11 9 4
3 4 1 9 4 10 14 12 15 15 20 20 21 23 20 19 19 14 15 15 18 16 16 12 12 13 13 13 14 13 12 13 14 14 14 15 14 16 14 13 14 14 12 12 11 11 10 7 4
4 2 3 6 8 7 4 16 20 14 12 24 22 15 18 23 19 15 22 16 17 18 10 3 12 12 12 11 13 13 14 14 14 15 15 14 16 15 14 12 12 12 11 9 9 9 9 10 8
4 3 2 7 12 4 18 14 6 8 10 14 18 21 21 21 21 23 14 17 15 14 12 6 14 9 10 11 9 10 12 13 13 9 15 18 11 10 10 12 10 10 8 9 10 9 9 7 7
6 3 6 2 10 11 13 18 16 13 13 15 18 19 19 19 18 17 19 14 17 16 11 10 9 11 8 11 9 7 7 6 6 3 4 7 10 6 10 9 8 8 8 5 7 10 9 8 5
2 5 1 6 10 7 11 8 9 15 3 23 23 21 19 19 16 12 15 16 18 10 5 9 10 11 8 9 9 8 4 9 6 7 7 6 8 8 6 4 5 6 5 1 6 6 7 7 7
5 4 5 6 7 6 13 10 9 13 5 20 22 19 19 18 16 14 13 17 17 16 12 11 12 3 5 6 4 11 6 12 8 5 6 5 2 3 6 6 7 3 5 6 4 6 3 5 5
6 6 13 8 7 2 4 8 15 4 4 19 22 18 18 18 15 14 14 21 18 15 10 14 9 2 1 8 4 7 7 5 13 12 4 5 3 4 3 2 3 8 3 4 3 3 1 1 2
7 9 15 8 6 2 8 8 5 17 14 20 21 19 18 18 15 15 13 15 16 13 15 14 8 3 4 6 10 5 3 5 8 8 11 9 3 2 2 2 3 6 10 5 4 3 5 3 4
15 15 12 9 2 4 7 4 6 12 17 20 19 18 17 16 16 13 13 12 15 13 16 13 9 8 5 4 7 5 5 4 6 4 4 5 5 2 4 3 3 3 2 1 1 4 1 5 5
10 6 6 6 7 3 7 10 1 12 16 19 20 17 16 16 16 13 14 13 11 15 14 12 11 12 7 5 3 2 5 4 4 7 4 6 3 1 3 1 4 5 2 3 4 4 5 5 6
8 7 9 6 3 3 3 7 9 9 17 19 19 18 16 13 16 13 15 14 16 13 9 10 11 10 7 8 0 2 5 3 4 2 6 6 4 3 5 3 3 1 5 3 6 3 4 3 3
9 9 7 10 5 3 4 9 11 10 12 19 17 18 17 15 16 14 16 16 16 12 8 10 8 8 7 1 1 2 4 1 5 2 5 4 3 3 3 1 3 10 5 4 2 2 3 2 4
6 4 10 9 12 5 4 5 13 6 9 10 16 15 17 19 16 15 15 19 17 13 6 9 11 8 6 5 3 3 2 3 4 3 5 6 4 2 4 4 6 6 10 4 6 4 6 2 7
17 13 15 11 16 3 4 14 14 7 7 7 9 17 17 11 3 15 15 18 19 13 8 8 8 8 5 3 1 2 3 4 2 3 5 4 3 2 4 3 11 12 8 2 5 6 5 3 8
24 10 14 9 11 3 9 3 8 10 9 15 13 17 17 23 17 17 15 17 20 17 12 10 8 9 5 5 4 5 3 4 4 2 4 4 6 3 1 4 7 1 5 4 2 4 6 2 4
8 18 12 11 8 3 14 4 1 14 10 12 16 9 8 3 20 17 14 14 19 19 17 13 9 7 7 5 1 15 6 4 3 4 3 5 4 4 4 3 8 2 4 7 5 3 5 7 6
13 12 18 14 8 9 12 4 6 11 11 18 22 12 19 25 14 10 18 10 12 15 17 15 12 8 5 3 2 5 2 2 3 4 7 2 3 4 6 6 2 9 5 7 5 4 6 6 5
19 21 16 13 5 5 13 5 8 17 33 24 15 13 10 10 18 17 19 16 14 14 17 16 16 12 7 6 6 2 8 6 4 3 5 5 5 4 4 6 4 3 4 7 3 4 5 4 15
7 14 5 4 7 4 16 10 7 23 18 22 19 19 17 15 11 17 11 11 10 5 11 17 16 14 11 8 7 6 12 10 7 4 2 5 3 2 5 4 5 4 5 6 0 2 2 2 2
11 12 5 3 4 2 5 2 6 23 20 25 22 19 17 21 14 15 17 11 11 14 10 19 16 13 13 10 8 7 8 7 6 4 4 3 4 3 5 5 5 6 6 5 2 3 3 2 1
13 11 16 5 8 7 1 6 2 20 15 19 21 22 19 9 4 17 19 19 13 10 15 19 18 15 13 12 8 6 5 5 2 4 2 1 4 3 2 5 5 5 4 4 3 3 4 1 2
16 7 11 6 4 5 7 8 6 8 15 21 21 25 21 20 24 23 15 16 16 21 15 19 18 16 14 12 11 10 9 6 5 3 6 6 6 15 14 9 6 4 2 3 3 3 4 1 0
11 12 10 13 9 5 9 4 12 3 11 16 21 24 24 21 18 14 17 17 22 16 13 16 15 15 13 12 11 10 9 9 7 6 4 5 7 7 12 5 4 4 4 4 3 1 5 4 4
16 16 17 10 11 10 11 2 12 17 9 12 21 22 23 20 19 13 12 17 12 11 12 6 6 14 13 11 9 11 9 8 9 7 6 6 7 10 8 6 5 4 3 3 2 4 2 3 4
Wind_Direction
237 228 230 286 281 226 129 111 92 103 84 65 59 77 98 295 85 108 141 119 122 117 125 110 104 102 95 95 91 88 87 95 93 93 94 94 94 96 88 92 89 86 86 83 85 87 80 78 79
241 236 337 67 305 193 106 105 119 100 90 72 64 73 87 87 102 121 129 130 122 135 121 111 107 104 101 98 94 97 95 92 95 96 99 103 102 98 95 93 94 88 88 86 86 84 80 79 76
256 267 110 172 272 226 117 121 110 111 135 100 92 82 94 106 112 113 85 91 119 99 104 111 110 108 106 100 103 99 95 97 101 108 109 103 103 103 98 101 96 97 89 90 92 88 83 79 70
242 245 222 123 249 286 125 112 133 118 99 99 100 85 99 100 109 105 102 72 90 101 104 111 114 110 109 108 101 102 104 101 102 116 110 110 105 102 102 99 103 103 100 91 91 90 88 82 68
190 259 285 231 201 314 110 130 151 114 98 38 117 107 103 109 110 114 123 139 126 110 120 110 110 112 106 107 106 114 110 110 110 114 117 116 107 105 102 103 106 108 98 104 94 93 96 89 63
286 229 267 85 6 317 124 162 106 77 110 162 110 115 108 135 115 133 123 127 151 114 112 116 113 112 108 109 107 112 111 112 105 115 115 114 114 111 105 102 103 106 97 98 99 100 103 100 68
219 282 343 99 164 297 134 155 75 117 106 120 113 120 129 134 119 131 133 130 102 110 118 122 124 115 111 113 113 116 112 117 119 122 128 121 117 119 110 104 100 102 103 106 104 109 114 115 134
244 281 161 146 157 277 288 68 129 108 120 121 128 136 146 128 126 153 107 85 95 93 61 139 148 139 133 121 119 123 135 127 122 129 133 137 126 119 118 115 104 100 104 122 130 133 142 157 172
284 265 221 166 165 245 299 102 17 99 198 136 124 144 131 143 141 109 97 114 101 114 120 197 133 117 122 123 119 121 125 127 123 139 162 159 138 131 136 103 112 112 132 149 158 159 176 186 204
222 283 337 175 134 182 265 103 170 169 157 108 125 122 143 140 122 149 148 131 124 129 140 142 101 135 159 116 148 107 144 148 80 356 345 314 110 123 111 122 134 154 181 193 185 181 197 203 189
220 245 142 78 126 119 247 175 157 126 122 131 132 136 152 131 140 156 141 141 125 148 150 125 143 141 199 130 156 146 215 72 10 288 260 271 112 127 140 149 182 189 137 356 313 218 212 229 246
180 165 151 151 132 151 263 202 94 122 179 131 134 157 137 147 160 154 141 123 132 130 140 121 114 134 150 161 146 154 167 129 192 296 311 297 300 164 157 184 196 145 151 164 199 248 109 191 62
220 96 105 113 134 128 226 97 120 359 223 131 139 159 151 154 165 146 127 127 133 128 162 110 106 82 269 93 138 109 119 156 141 180 312 286 16 57 117 140 351 143 57 282 244 216 127 152 60
135 133 120 126 102 87 111 71 110 187 141 143 147 153 166 154 161 127 130 125 123 152 118 111 107 145 44 96 91 100 134 186 136 140 169 255 177 131 125 269 179 123 153 247 147 237 196 208 107
139 137 131 153 44 90 119 37 158 148 155 149 157 164 166 159 129 139 137 133 135 129 112 121 150 160 106 116 118 137 196 116 110 102 81 71 118 359 108 222 14 142 129 315 161 283 263 131 125
135 112 173 119 160 18 337 156 197 160 161 156 165 168 153 158 139 149 141 150 134 114 129 163 163 125 153 143 92 154 136 116 163 131 146 86 58 306 276 167 173 88 285 230 254 223 260 158 155
180 175 127 143 199 116 269 143 215 257 172 170 171 159 159 146 141 152 147 143 118 122 167 150 116 122 130 93 71 214 109 152 123 80 132 122 169 226 275 180 122 110 326 341 355 10 38 279 130
198 224 124 137 133 149 180 272 198 256 269 183 169 164 154 152 147 157 155 129 121 136 180 127 121 135 120 100 13 164 156 162 108 111 104 159 127 260 346 69 103 24 32 341 294 106 282 347 22
151 87 123 135 144 132 151 328 258 248 286 255 164 162 142 168 155 165 135 126 135 153 142 125 139 114 139 180 184 141 167 146 95 121 151 124 171 69 301 20 68 43 307 280 50 349 320 75 225
281 149 151 131 140 114 156 314 207 285 264 267 168 152 153 141 301 165 153 142 141 138 122 117 136 146 190 179 101 114 144 115 156 153 124 81 77 152 286 53 91 188 251 21 107 249 291 308 59
261 150 158 128 141 82 125 43 200 261 301 305 288 160 173 144 226 164 171 153 144 144 146 145 160 179 217 123 127 50 360 133 110 138 148 164 153 231 272 7 98 350 341 327 261 286 354 347 140
256 96 105 128 171 203 215 135 222 204 245 291 283 180 188 272 175 163 181 161 155 151 156 155 159 177 196 174 179 144 198 203 161 165 139 157 160 224 144 222 89 80 339 310 313 312 17 343 15
104 115 144 165 184 152 205 144 161 173 240 229 227 220 179 193 175 159 177 155 128 162 150 155 151 187 198 155 71 152 190 337 230 117 128 146 160 189 190 125 166 154 225 271 297 330 30 38 21
120 126 105 102 213 232 193 178 203 176 207 213 216 235 207 196 196 155 237 171 174 166 151 156 157 171 165 177 161 213 70 358 301 171 170 179 182 193 204 162 153 154 163 273 286 345 22 50 113
220 193 167 197 206 236 179 197 231 212 208 198 198 212 201 218 223 163 208 121 159 135 191 153 156 160 150 212 164 165 132 211 260 216 79 19 227 168 179 160 165 178 189 270 232 310 296 11 14
213 247 197 291 329 60 332 266 234 200 197 193 194 195 215 195 163 229 182 160 167 206 209 156 159 157 162 193 184 167 177 201 213 196 97 256 316 149 156 189 177 210 184 235 163 293 243 280 212
204 214 245 163 128 272 347 14 333 174 187 184 204 189 208 193 250 242 156 167 162 198 242 153 156 161 174 182 177 164 166 232 179 113 347 48 354 55 128 196 189 199 212 199 164 230 290 174 344
274 268 218 150 153 301 217 174 300 177 198 180 196 190 200 169 187 234 171 169 171 197 218 154 154 160 172 178 169 179 184 190 187 194 172 178 75 70 303 264 212 180 173 221 234 298 327 278 245
220 254 264 268 178 140 281 151 167 227 304 187 188 189 190 204 207 182 162 201 194 186 149 150 157 162 177 175 174 171 179 182 181 192 193 154 127 180 210 236 204 177 190 221 230 350 290 212 218
251 225 243 258 251 239 232 254 171 155 271 252 188 204 186 201 209 199 186 169 200 138 128 99 146 161 175 169 181 171 189 183 183 185 174 200 173 190 194 207 192 206 206 224 212 239 274 274 243